Darstellungsparameter: Aktuell verwendete Einstellungen:
Skalierung der Graphiken ... ?
xyx+y,   Skalierungsfaktor:      Skalierung: Modus: x, Faktor: 1
Darstellungszeitraum ... ?
Vom - - bis: - -   Zeitraum: 15.08.2013 - 14.08.2016
Min/Max/Avg-Anzeige ... ?
Zeige MMA aktuell
Zeige MMA Monat
Zeige MMA alles
Zeige --A aktuell
Zeige --A Monat
Zeige --A alles
Keine MMA-Anzeige
MMA:
Keine MMA-Graphiken
MMA-Basis: 15.08.2013 - 14.08.2016
Quicknavigation für Darstellung... ?
Tage:      1T, 2T, 3T, 5T -1T -2T -3T -5T +1T +2T +3T +5T
Wochen: 1W, 2W, 3W -1W -2W -3W +1W +2W +3W
Monate: 1M, 3M, 6M -1M -3M -6M +1M +3M +6M
Jahre:    1J, 3J, 5J, 10J -1J -3J -5J -10J +1J +3J +5J +10J
Nutze für die Darstellung ... ?
Originaldaten oder ...
Mittelwerte Minima Maxima auf...
Stundenbasis Tagesbasis Wochenbasis
Monatsbasis Jahresbasis      Datenbasis: Mittelwerte auf Tagesbasis
Darstellen als:
Statistik (Auto) Statistik J:M      Darstellung:
Zur Graphik,    zurück zur Übersicht aller Sensoren.
 
Tabellarische Datenbersicht: ?
 
Sensor: Nr:Datum:Temp:Feuchte:Taupunkt:
Aussen-T/F 1 15-08-2013 00:00:00 16.30035 C 77.9028 % 12.44 C
2 16-08-2013 00:00:00 17.96319 C 75.3750 % 13.55 C
3 17-08-2013 00:00:00 20.47965 C 70.5158 % 14.94 C
4 18-08-2013 00:00:00 19.29614 C 82.4596 % 16.23 C
5 19-08-2013 00:00:00 17.75764 C 80.2465 % 14.31 C
6 20-08-2013 00:00:00 14.96458 C 79.6111 % 11.47 C
7 21-08-2013 00:00:00 15.16285 C 81.7743 % 12.07 C
8 22-08-2013 00:00:00 16.33576 C 83.6111 % 13.56 C
9 23-08-2013 00:00:00 18.61667 C 76.7708 % 14.46 C
10 24-08-2013 00:00:00 16.10208 C 89.7396 % 14.42 C
11 25-08-2013 00:00:00 16.06806 C 95.2708 % 15.31 C
12 26-08-2013 00:00:00 15.16806 C 96.5451 % 14.62 C
13 27-08-2013 00:00:00 15.88472 C 89.9792 % 14.24 C
14 28-08-2013 00:00:00 15.65312 C 87.5035 % 13.59 C
15 29-08-2013 00:00:00 14.74062 C 90.2153 % 13.15 C
16 30-08-2013 00:00:00 15.73924 C 87.8472 % 13.73 C
17 31-08-2013 00:00:00 16.33229 C 86.2986 % 14.04 C
18 01-09-2013 00:00:00 14.50938 C 73.5035 % 9.83 C
19 02-09-2013 00:00:00 17.48924 C 69.9375 % 11.95 C
20 03-09-2013 00:00:00 18.08299 C 80.6319 % 14.7 C
21 04-09-2013 00:00:00 17.74583 C 85.1701 % 15.22 C
22 05-09-2013 00:00:00 18.47349 C 84.5181 % 15.82 C
23 06-09-2013 00:00:00 22.68615 C 74.2769 % 17.87 C
24 07-09-2013 00:00:00 18.36354 C 91.5208 % 16.96 C
25 08-09-2013 00:00:00 14.78542 C 93.9097 % 13.81 C
Sensor: Nr:Datum:Temp:Feuchte:Taupunkt:
Aussen-T/F 26 09-09-2013 00:00:00 14.16944 C 86.9965 % 12.04 C
27 10-09-2013 00:00:00 13.35073 C 82.4891 % 10.43 C
28 11-09-2013 00:00:00 13.00912 C 87.8066 % 11.04 C
29 12-09-2013 00:00:00 13.53472 C 92.7535 % 12.39 C
30 13-09-2013 00:00:00 14.67363 C 88.3553 % 12.77 C
31 14-09-2013 00:00:00 15.8191 C 93.1007 % 14.71 C
32 15-09-2013 00:00:00 14.41667 C 87.2500 % 12.33 C
33 16-09-2013 00:00:00 13.23333 C 81.3229 % 10.11 C
34 17-09-2013 00:00:00 10.58958 C 82.5833 % 7.75 C
35 18-09-2013 00:00:00 12.57951 C 92.8750 % 11.46 C
36 19-09-2013 00:00:00 11.89444 C 86.6076 % 9.73 C
37 20-09-2013 00:00:00 13.91806 C 85.7778 % 11.58 C
38 21-09-2013 00:00:00 12.20868 C 91.0000 % 10.78 C
39 22-09-2013 00:00:00 13.3788 C 90.7668 % 11.9 C
40 23-09-2013 00:00:00 15.46493 C 89.1076 % 13.68 C
41 24-09-2013 00:00:00 12.34792 C 94.6979 % 11.52 C
42 25-09-2013 00:00:00 14.08646 C 94.5347 % 13.22 C
43 26-09-2013 00:00:00 14.58924 C 91.1389 % 13.16 C
44 27-09-2013 00:00:00 11.25312 C 89.0660 % 9.52 C
45 28-09-2013 00:00:00 10.575 C 88.4286 % 8.74 C
46 29-09-2013 00:00:00 11.89028 C 85.1667 % 9.48 C
47 30-09-2013 00:00:00 9.80833 C 87.1910 % 7.78 C
48 01-10-2013 00:00:00 11.38264 C 80.5903 % 8.17 C
49 02-10-2013 00:00:00 9.01493 C 82.1111 % 6.13 C
50 03-10-2013 00:00:00 8.84479 C 80.9549 % 5.76 C
Sensor: Nr:Datum:Temp:Feuchte:Taupunkt:
Aussen-T/F 51 04-10-2013 00:00:00 11.33993 C 91.6215 % 10.03 C
52 05-10-2013 00:00:00 12.69583 C 97.5486 % 12.32 C
53 06-10-2013 00:00:00 13.60313 C 92.6910 % 12.44 C
54 07-10-2013 00:00:00 13.21667 C 94.6806 % 12.38 C
55 08-10-2013 00:00:00 13.44791 C 95.3505 % 12.72 C
56 09-10-2013 00:00:00 13.86667 C 91.5938 % 12.52 C
57 10-10-2013 00:00:00 8.4625 C 94.6285 % 7.65 C
58 11-10-2013 00:00:00 6.86042 C 97.1285 % 6.44 C
59 12-10-2013 00:00:00 6.31215 C 95.1910 % 5.6 C
60 13-10-2013 00:00:00 7.69167 C 90.0208 % 6.16 C
61 14-10-2013 00:00:00 9.89091 C 92.2182 % 8.69 C
62 15-10-2013 00:00:00 10.43275 C 94.2113 % 9.54 C
63 16-10-2013 00:00:00 10.04523 C 95.8799 % 9.42 C
64 17-10-2013 00:00:00 12.70972 C 88.6771 % 10.89 C
65 18-10-2013 00:00:00 11.80868 C 95.7083 % 11.15 C
66 19-10-2013 00:00:00 11.72702 C 95.4877 % 11.03 C
67 20-10-2013 00:00:00 15.28507 C 93.8021 % 14.29 C
68 21-10-2013 00:00:00 15.075 C 89.9861 % 13.45 C
69 22-10-2013 00:00:00 15.7614 C 91.7404 % 14.42 C
70 23-10-2013 00:00:00 15.81476 C 92.6790 % 14.63 C
71 24-10-2013 00:00:00 13.67431 C 95.5069 % 12.97 C
72 25-10-2013 00:00:00 13.01701 C 96.8958 % 12.54 C
73 26-10-2013 00:00:00 16.41144 C 95.1808 % 15.64 C
74 27-10-2013 00:00:00 14.94896 C 83.9028 % 12.25 C
75 28-10-2013 00:00:00 15.40962 C 78.1385 % 11.62 C
Sensor: Nr:Datum:Temp:Feuchte:Taupunkt:
Aussen-T/F 76 29-10-2013 00:00:00 11.12569 C 77.4901 % 7.34 C
77 30-10-2013 00:00:00 7.81825 C 86.6702 % 5.74 C
78 31-10-2013 00:00:00 5.27708 C 94.3854 % 4.45 C
79 01-11-2013 00:00:00 9.4316 C 89.5208 % 7.8 C
80 02-11-2013 00:00:00 12.79889 C 90.4354 % 11.27 C
81 03-11-2013 00:00:00 9.93611 C 83.6701 % 7.31 C
82 04-11-2013 00:00:00 9.80526 C 87.0912 % 7.76 C
83 05-11-2013 00:00:00 6.72153 C 87.5556 % 4.81 C
84 06-11-2013 00:00:00 10.70215 C 88.7348 % 8.92 C
85 07-11-2013 00:00:00 15.04132 C 84.5243 % 12.46 C
86 08-11-2013 00:00:00 11.92093 C 93.0372 % 10.83 C
87 09-11-2013 00:00:00 9.48785 C 80.9931 % 6.39 C
88 10-11-2013 00:00:00 6.68715 C 90.9653 % 5.32 C
89 11-11-2013 00:00:00 4.00764 C 96.3542 % 3.48 C
90 12-11-2013 00:00:00 4.41146 C 93.7951 % 3.5 C
91 13-11-2013 00:00:00 6.28491 C 93.5579 % 5.32 C
92 14-11-2013 00:00:00 3.2816 C 95.0833 % 2.57 C
93 15-11-2013 00:00:00 4.99201 C 90.5035 % 3.57 C
94 16-11-2013 00:00:00 3.05 C 91.8507 % 1.86 C
95 17-11-2013 00:00:00 3.2184 C 94.6285 % 2.44 C
96 18-11-2013 00:00:00 5.38287 C 94.0916 % 4.51 C
97 19-11-2013 00:00:00 6.22 C 91.5647 % 4.95 C
98 20-11-2013 00:00:00 3.96643 C 91.7483 % 2.75 C
99 21-11-2013 00:00:00 4.05603 C 89.4310 % 2.48 C
100 22-11-2013 00:00:00 4.42 C 86.5545 % 2.38 C
Sensor: Nr:Datum:Temp:Feuchte:Taupunkt:
Aussen-T/F 101 23-11-2013 00:00:00 7.03092 C 87.0000 % 5.02 C
102 24-11-2013 00:00:00 5.71435 C 88.4739 % 3.96 C
103 25-11-2013 00:00:00 2.65439 C 93.3216 % 1.69 C
104 26-11-2013 00:00:00 0.53125 C 94.5590 % -0.24 C
105 27-11-2013 00:00:00 0.63854 C 92.5035 % -0.43 C
106 28-11-2013 00:00:00 3.45709 C 94.3022 % 2.63 C
107 29-11-2013 00:00:00 5.6434 C 91.5833 % 4.38 C
108 30-11-2013 00:00:00 4.32604 C 93.7951 % 3.42 C
109 01-12-2013 00:00:00 5.01254 C 94.7178 % 4.24 C
110 02-12-2013 00:00:00 4.76458 C 93.0486 % 3.74 C
111 03-12-2013 00:00:00 -0.45729 C 97.1806 % -0.85 C
112 04-12-2013 00:00:00 3.27917 C 91.8924 % 2.09 C
113 05-12-2013 00:00:00 3.93475 C 87.9291 % 2.12 C
114 06-12-2013 00:00:00 3.76181 C 74.9583 % -0.26 C
115 07-12-2013 00:00:00 4.38715 C 85.8194 % 2.23 C
116 08-12-2013 00:00:00 6.92188 C 87.3785 % 4.97 C
117 09-12-2013 00:00:00 6.42222 C 84.1806 % 3.95 C
118 10-12-2013 00:00:00 3.24896 C 95.9236 % 2.66 C
119 11-12-2013 00:00:00 3.72465 C 96.5903 % 3.23 C
120 12-12-2013 00:00:00 4.08993 C 92.2118 % 2.94 C
121 13-12-2013 00:00:00 2.65694 C 90.5313 % 1.27 C
122 14-12-2013 00:00:00 3.58986 C 92.6923 % 2.52 C
123 15-12-2013 00:00:00 4.99688 C 85.9340 % 2.84 C
124 16-12-2013 00:00:00 1.49676 C 94.6511 % 0.73 C
125 17-12-2013 00:00:00 1.25451 C 95.3924 % 0.6 C
Sensor: Nr:Datum:Temp:Feuchte:Taupunkt:
Aussen-T/F 126 18-12-2013 00:00:00 4.19965 C 94.2153 % 3.35 C
127 19-12-2013 00:00:00 8.13715 C 88.2813 % 6.32 C
128 20-12-2013 00:00:00 4.38403 C 92.2708 % 3.24 C
129 21-12-2013 00:00:00 4.81354 C 81.8229 % 1.98 C
130 22-12-2013 00:00:00 8.81493 C 82.7222 % 6.04 C
131 23-12-2013 00:00:00 8.42341 C 85.6230 % 6.16 C
132 24-12-2013 00:00:00 11.57579 C 73.6140 % 7.03 C
133 25-12-2013 00:00:00 8.41944 C 92.4444 % 7.27 C
134 26-12-2013 00:00:00 6.06579 C 94.8195 % 5.3 C
135 27-12-2013 00:00:00 6.6549 C 85.1608 % 4.34 C
136 28-12-2013 00:00:00 9.14444 C 90.1181 % 7.61 C
137 29-12-2013 00:00:00 4.76463 C 93.9695 % 3.88 C
138 30-12-2013 00:00:00 4.17107 C 89.7934 % 2.65 C
139 31-12-2013 00:00:00 2.91045 C 89.5522 % 1.37 C
140 01-01-2014 00:00:00 6.46912 C 86.4737 % 4.38 C
141 02-01-2014 00:00:00 8.31947 C 88.5649 % 6.54 C
142 03-01-2014 00:00:00 8.74861 C 86.5347 % 6.63 C
143 04-01-2014 00:00:00 7.47049 C 88.5833 % 5.71 C
144 05-01-2014 00:00:00 6.13111 C 91.4622 % 4.85 C
145 06-01-2014 00:00:00 8.33819 C 89.1736 % 6.66 C
146 07-01-2014 00:00:00 10.72882 C 85.7708 % 8.45 C
147 08-01-2014 00:00:00 10.3965 C 86.9027 % 8.31 C
148 09-01-2014 00:00:00 9.27876 C 85.9961 % 7.06 C
149 10-01-2014 00:00:00 5.59896 C 86.9757 % 3.61 C
150 11-01-2014 00:00:00 3.80382 C 93.2049 % 2.81 C
Sensor: Nr:Datum:Temp:Feuchte:Taupunkt:
Aussen-T/F 151 12-01-2014 00:00:00 0.34545 C 97.0618 % -0.06 C
152 13-01-2014 00:00:00 3.73194 C 95.9965 % 3.15 C
153 14-01-2014 00:00:00 5.06036 C 94.4536 % 4.25 C
154 15-01-2014 00:00:00 4.1934 C 91.9444 % 3 C
155 16-01-2014 00:00:00 6.5375 C 93.3160 % 5.54 C
156 17-01-2014 00:00:00 6.75 C 92.8021 % 5.67 C
157 18-01-2014 00:00:00 4.5321 C 90.4686 % 3.11 C
158 19-01-2014 00:00:00 4.621 C 92.0569 % 3.44 C
159 20-01-2014 00:00:00 4.32836 C 94.6567 % 3.55 C
160 21-01-2014 00:00:00 3.49792 C 93.6632 % 2.58 C
161 22-01-2014 00:00:00 3.18571 C 95.3022 % 2.51 C
162 23-01-2014 00:00:00 3.72927 C 92.3049 % 2.6 C
163 24-01-2014 00:00:00 3.90268 C 93.5670 % 2.96 C
164 25-01-2014 00:00:00 2.8165 C 94.8000 % 2.07 C
165 26-01-2014 00:00:00 5.11851 C 83.3630 % 2.54 C
166 27-01-2014 00:00:00 4.4199 C 87.2094 % 2.48 C
167 28-01-2014 00:00:00 2.36869 C 88.8889 % 0.73 C
168 29-01-2014 00:00:00 1.54036 C 85.8253 % -0.57 C
169 30-01-2014 00:00:00 1.98611 C 84.2049 % -0.39 C
170 31-01-2014 00:00:00 1.03819 C 91.0799 % -0.25 C
171 01-02-2014 00:00:00 4.63819 C 89.8646 % 3.12 C
172 02-02-2014 00:00:00 4.14306 C 90.0729 % 2.66 C
173 03-02-2014 00:00:00 1.00938 C 95.5486 % 0.38 C
174 04-02-2014 00:00:00 4.28785 C 89.7083 % 2.75 C
175 05-02-2014 00:00:00 4.74236 C 89.7049 % 3.2 C
Sensor: Nr:Datum:Temp:Feuchte:Taupunkt:
Aussen-T/F 176 06-02-2014 00:00:00 8.42431 C 76.6181 % 4.56 C
177 07-02-2014 00:00:00 8.79132 C 78.4410 % 5.25 C
178 08-02-2014 00:00:00 6.5309 C 83.7222 % 3.98 C
179 09-02-2014 00:00:00 5.34375 C 80.9306 % 2.34 C
180 10-02-2014 00:00:00 3.38819 C 87.2500 % 1.48 C
181 11-02-2014 00:00:00 5.41354 C 82.3819 % 2.66 C
182 12-02-2014 00:00:00 5.44028 C 81.1319 % 2.47 C
183 13-02-2014 00:00:00 5.71771 C 88.4479 % 3.96 C
184 14-02-2014 00:00:00 5.64722 C 85.6979 % 3.44 C
185 15-02-2014 00:00:00 9.70669 C 79.3415 % 6.31 C
186 16-02-2014 00:00:00 7.36493 C 80.5694 % 4.25 C
187 17-02-2014 00:00:00 3.59861 C 91.7118 % 2.38 C
188 18-02-2014 00:00:00 3.38715 C 94.0590 % 2.52 C
189 19-02-2014 00:00:00 7.825 C 84.9722 % 5.46 C
190 20-02-2014 00:00:00 8.68958 C 82.6215 % 5.9 C
191 21-02-2014 00:00:00 7.64062 C 84.5451 % 5.21 C
192 22-02-2014 00:00:00 4.99861 C 87.1563 % 3.05 C
193 23-02-2014 00:00:00 5.94204 C 83.6694 % 3.39 C
194 24-02-2014 00:00:00 5.86389 C 80.9444 % 2.85 C
195 25-02-2014 00:00:00 6.68681 C 82.1910 % 3.87 C
196 26-02-2014 00:00:00 8.58182 C 81.5382 % 5.61 C
197 27-02-2014 00:00:00 5.86275 C 84.1961 % 3.41 C
198 28-02-2014 00:00:00 6.2146 C 87.8248 % 4.35 C
199 01-03-2014 00:00:00 5.44375 C 88.4410 % 3.69 C
200 02-03-2014 00:00:00 3.55069 C 87.5208 % 1.68 C
Sensor: Nr:Datum:Temp:Feuchte:Taupunkt:
Aussen-T/F 201 03-03-2014 00:00:00 5.27743 C 86.6458 % 3.24 C
202 04-03-2014 00:00:00 4.21701 C 86.7118 % 2.2 C
203 05-03-2014 00:00:00 4.68235 C 86.5059 % 2.63 C
204 06-03-2014 00:00:00 3.87951 C 89.4306 % 2.3 C
205 07-03-2014 00:00:00 6.23037 C 80.7383 % 3.17 C
206 08-03-2014 00:00:00 7.3847 C 80.0427 % 4.18 C
207 09-03-2014 00:00:00 7.27263 C 76.4772 % 3.42 C
208 10-03-2014 00:00:00 7.44444 C 75.5035 % 3.41 C
209 11-03-2014 00:00:00 8.4184 C 78.6424 % 4.93 C
210 12-03-2014 00:00:00 9.07812 C 74.1354 % 4.72 C
211 13-03-2014 00:00:00 8.16007 C 73.3681 % 3.69 C
212 14-03-2014 00:00:00 7.91944 C 76.8993 % 4.12 C
213 15-03-2014 00:00:00 8.97326 C 77.3021 % 5.22 C
214 16-03-2014 00:00:00 11.50486 C 77.2500 % 7.67 C
215 17-03-2014 00:00:00 10.27882 C 81.5486 % 7.27 C
216 18-03-2014 00:00:00 9.4066 C 83.2882 % 6.72 C
217 19-03-2014 00:00:00 12.2875 C 70.5521 % 7.1 C
218 20-03-2014 00:00:00 12.49333 C 67.2772 % 6.6 C
219 21-03-2014 00:00:00 13.1375 C 66.5069 % 7.05 C
220 22-03-2014 00:00:00 8.65208 C 83.0799 % 5.95 C
221 23-03-2014 00:00:00 6.03507 C 81.4861 % 3.11 C
222 24-03-2014 00:00:00 5.42632 C 80.7404 % 2.39 C
223 25-03-2014 00:00:00 4.1625 C 82.4271 % 1.44 C
224 26-03-2014 00:00:00 4.56076 C 78.8125 % 1.21 C
225 27-03-2014 00:00:00 8.14604 C 73.6475 % 3.73 C
Sensor: Nr:Datum:Temp:Feuchte:Taupunkt:
Aussen-T/F 226 28-03-2014 00:00:00 10.60972 C 66.4167 % 4.62 C
227 29-03-2014 00:00:00 10.34963 C 70.5809 % 5.24 C
228 30-03-2014 00:00:00 9.15619 C 76.1429 % 5.18 C
229 31-03-2014 00:00:00 12.96562 C 65.8924 % 6.75 C
230 01-04-2014 00:00:00 13.77519 C 67.7366 % 7.92 C
231 02-04-2014 00:00:00 13.90458 C 68.9754 % 8.31 C
232 03-04-2014 00:00:00 12.54324 C 77.5811 % 8.74 C
233 04-04-2014 00:00:00 14.95971 C 74.9173 % 10.55 C
234 05-04-2014 00:00:00 13.00531 C 86.2612 % 10.77 C
235 06-04-2014 00:00:00 11.67782 C 83.0879 % 8.91 C
236 07-04-2014 00:00:00 15.95041 C 75.4713 % 11.62 C
237 08-04-2014 00:00:00 12.18521 C 67.1585 % 6.28 C
238 09-04-2014 00:00:00 9.27426 C 75.9154 % 5.25 C
239 10-04-2014 00:00:00 10.31543 C 77.0864 % 6.48 C
240 11-04-2014 00:00:00 14.56849 C 72.5000 % 9.69 C
241 12-04-2014 00:00:00 12.65368 C 70.8982 % 7.52 C
242 13-04-2014 00:00:00 11.60669 C 71.0599 % 6.55 C
243 14-04-2014 00:00:00 9.7593 C 71.2491 % 4.81 C
244 15-04-2014 00:00:00 7.10171 C 73.7991 % 2.75 C
245 16-04-2014 00:00:00 12.97192 C 49.4521 % 2.65 C
246 17-04-2014 00:00:00 9.85313 C 63.3021 % 3.22 C
247 18-04-2014 00:00:00 10.72049 C 64.8750 % 4.39 C
248 19-04-2014 00:00:00 10.82049 C 71.8993 % 5.96 C
249 20-04-2014 00:00:00 14.91825 C 70.5509 % 9.62 C
250 21-04-2014 00:00:00 12.49479 C 77.9896 % 8.77 C
Sensor: Nr:Datum:Temp:Feuchte:Taupunkt:
Aussen-T/F 251 22-04-2014 00:00:00 12.82847 C 85.6076 % 10.48 C
252 23-04-2014 00:00:00 13.43958 C 81.1771 % 10.28 C
253 24-04-2014 00:00:00 15.42535 C 79.0035 % 11.8 C
254 25-04-2014 00:00:00 16.71562 C 74.1319 % 12.09 C
255 26-04-2014 00:00:00 15.2 C 74.7604 % 10.75 C
256 27-04-2014 00:00:00 13.07674 C 81.7986 % 10.04 C
257 28-04-2014 00:00:00 12.80243 C 79.8715 % 9.42 C
258 29-04-2014 00:00:00 13.43403 C 90.3056 % 11.88 C
259 30-04-2014 00:00:00 14.53507 C 84.7500 % 12 C
260 01-05-2014 00:00:00 14.73611 C 81.3611 % 11.58 C
261 02-05-2014 00:00:00 11.71319 C 86.6736 % 9.57 C
262 03-05-2014 00:00:00 10.92708 C 61.0069 % 3.71 C
263 04-05-2014 00:00:00 9.61042 C 68.0590 % 4.02 C
264 05-05-2014 00:00:00 12.60069 C 67.5521 % 6.76 C
265 06-05-2014 00:00:00 13.72083 C 74.2778 % 9.23 C
266 07-05-2014 00:00:00 13.05764 C 84.9931 % 10.6 C
267 08-05-2014 00:00:00 12.32847 C 84.6146 % 9.81 C
268 09-05-2014 00:00:00 15.33403 C 71.0833 % 10.13 C
269 10-05-2014 00:00:00 12.40903 C 81.6528 % 9.36 C
270 11-05-2014 00:00:00 11.45764 C 80.1667 % 8.16 C
271 12-05-2014 00:00:00 11.1941 C 74.9167 % 6.92 C
272 13-05-2014 00:00:00 10.30729 C 85.3368 % 7.96 C
273 14-05-2014 00:00:00 10.63542 C 76.9514 % 6.77 C
274 15-05-2014 00:00:00 10.00382 C 80.4757 % 6.8 C
275 16-05-2014 00:00:00 13.25347 C 73.1250 % 8.55 C
Sensor: Nr:Datum:Temp:Feuchte:Taupunkt:
Aussen-T/F 276 17-05-2014 00:00:00 14.22292 C 71.7500 % 9.2 C
277 18-05-2014 00:00:00 15.4809 C 74.3021 % 10.93 C
278 19-05-2014 00:00:00 17.57188 C 70.6944 % 12.19 C
279 20-05-2014 00:00:00 19.46562 C 67.3681 % 13.26 C
280 21-05-2014 00:00:00 20.29792 C 68.1181 % 14.23 C
281 22-05-2014 00:00:00 20.21806 C 65.7465 % 13.61 C
282 23-05-2014 00:00:00 15.52639 C 89.6667 % 13.84 C
283 24-05-2014 00:00:00 14.72993 C 81.1514 % 11.53 C
284 25-05-2014 00:00:00 15.25071 C 74.9149 % 10.83 C
285 26-05-2014 00:00:00 16.8625 C 80.3056 % 13.45 C
286 27-05-2014 00:00:00 15.19431 C 94.7346 % 14.36 C
287 28-05-2014 00:00:00 14.58118 C 88.4000 % 12.69 C
288 29-05-2014 00:00:00 13.44653 C 87.1042 % 11.35 C
289 30-05-2014 00:00:00 13.2316 C 70.4167 % 7.97 C
290 31-05-2014 00:00:00 13.40382 C 74.2639 % 8.92 C
291 01-06-2014 00:00:00 15.49273 C 69.6545 % 9.98 C
292 02-06-2014 00:00:00 15.88943 C 67.9715 % 9.99 C
293 03-06-2014 00:00:00 15.78662 C 74.8627 % 11.34 C
294 04-06-2014 00:00:00 14.95388 C 86.4155 % 12.71 C
295 05-06-2014 00:00:00 14.55765 C 67.7687 % 8.68 C
296 06-06-2014 00:00:00 17.20312 C 67.7778 % 11.2 C
297 07-06-2014 00:00:00 20.77257 C 72.3750 % 15.62 C
298 08-06-2014 00:00:00 24.09514 C 70.7431 % 18.45 C
299 09-06-2014 00:00:00 25.74583 C 69.9583 % 19.85 C
300 10-06-2014 00:00:00 23.66632 C 70.6389 % 18.01 C
Sensor: Nr:Datum:Temp:Feuchte:Taupunkt:
Aussen-T/F 301 11-06-2014 00:00:00 20.10803 C 81.3175 % 16.81 C
302 12-06-2014 00:00:00 19.97431 C 66.4583 % 13.54 C
303 13-06-2014 00:00:00 18.37014 C 68.1597 % 12.4 C
304 14-06-2014 00:00:00 17.27465 C 65.5104 % 10.76 C
305 15-06-2014 00:00:00 16.86944 C 67.1875 % 10.75 C
306 16-06-2014 00:00:00 15.61944 C 74.7396 % 11.15 C
307 17-06-2014 00:00:00 17.41354 C 66.8819 % 11.2 C
308 18-06-2014 00:00:00 17.76319 C 71.4931 % 12.54 C
309 19-06-2014 00:00:00 15.70791 C 75.5252 % 11.4 C
310 20-06-2014 00:00:00 15.64143 C 71.1667 % 10.44 C
311 21-06-2014 00:00:00 16.62118 C 65.5903 % 10.15 C
312 22-06-2014 00:00:00 16.62782 C 66.3415 % 10.33 C
313 23-06-2014 00:00:00 17.14792 C 65.1910 % 10.56 C
314 24-06-2014 00:00:00 16.64978 C 71.6277 % 11.5 C
315 25-06-2014 00:00:00 17.29096 C 56.5426 % 8.58 C
316 26-06-2014 00:00:00 16.18958 C 64.0764 % 9.4 C
317 27-06-2014 00:00:00 17.54167 C 67.2604 % 11.41 C
318 28-06-2014 00:00:00 16.28043 C 87.3950 % 14.18 C
319 29-06-2014 00:00:00 14.67192 C 93.3251 % 13.61 C
320 30-06-2014 00:00:00 16.05247 C 75.2167 % 11.67 C
321 01-07-2014 00:00:00 15.65035 C 70.2917 % 10.26 C
322 02-07-2014 00:00:00 16.86146 C 65.5313 % 10.37 C
323 03-07-2014 00:00:00 19.78889 C 59.6493 % 11.72 C
324 04-07-2014 00:00:00 20.36076 C 67.5382 % 14.16 C
325 05-07-2014 00:00:00 20.4 C 77.3439 % 16.3 C
Sensor: Nr:Datum:Temp:Feuchte:Taupunkt:
Aussen-T/F 326 06-07-2014 00:00:00 23.48509 C 69.7818 % 17.65 C
327 07-07-2014 00:00:00 19.86367 C 64.8202 % 13.05 C
328 08-07-2014 00:00:00 15.57633 C 89.8898 % 13.92 C
329 09-07-2014 00:00:00 12.97083 C 95.1667 % 12.22 C
330 10-07-2014 00:00:00 17.68292 C 90.2000 % 16.06 C
331 11-07-2014 00:00:00 18.42369 C 88.6466 % 16.51 C
332 12-07-2014 00:00:00 18.68363 C 88.1018 % 16.67 C
333 13-07-2014 00:00:00 19.06941 C 85.5922 % 16.6 C
334 14-07-2014 00:00:00 19.60206 C 79.5021 % 15.96 C
335 15-07-2014 00:00:00 21.3216 C 70.6901 % 15.78 C
336 16-07-2014 00:00:00 21.88732 C 74.8829 % 17.23 C
337 17-07-2014 00:00:00 23.77903 C 70.2742 % 18.04 C
338 18-07-2014 00:00:00 24.87935 C 65.5097 % 17.97 C
339 19-07-2014 00:00:00 27.76989 C 58.4086 % 18.86 C
340 20-07-2014 00:00:00 22.68715 C 80.6840 % 19.19 C
341 21-07-2014 00:00:00 20.29965 C 91.0660 % 18.79 C
342 22-07-2014 00:00:00 23.6856 C 82.0494 % 20.44 C
343 23-07-2014 00:00:00 23.11788 C 73.8869 % 18.2 C
344 24-07-2014 00:00:00 20.63922 C 73.5020 % 15.74 C
345 25-07-2014 00:00:00 21.8193 C 72.9825 % 16.76 C
346 26-07-2014 00:00:00 21.92 C 74.3097 % 17.14 C
347 27-07-2014 00:00:00 19.66694 C 83.9339 % 16.88 C
348 28-07-2014 00:00:00 22.3284 C 78.8580 % 18.48 C
349 29-07-2014 00:00:00 19.88194 C 95.8125 % 19.19 C
350 30-07-2014 00:00:00 19.93194 C 85.4097 % 17.41 C
Sensor: Nr:Datum:Temp:Feuchte:Taupunkt:
Aussen-T/F 351 31-07-2014 00:00:00 20.20645 C 77.0896 % 16.06 C
352 01-08-2014 00:00:00 20.08438 C 81.7153 % 16.86 C
353 02-08-2014 00:00:00 20.10868 C 84.8264 % 17.48 C
354 03-08-2014 00:00:00 21.3566 C 81.2743 % 18.02 C
355 04-08-2014 00:00:00 19.00347 C 86.5799 % 16.71 C
356 05-08-2014 00:00:00 18.77049 C 82.0208 % 15.64 C
357 06-08-2014 00:00:00 17.59618 C 84.4201 % 14.94 C
358 07-08-2014 00:00:00 18.9934 C 85.7986 % 16.56 C
359 08-08-2014 00:00:00 18.87604 C 89.5625 % 17.12 C
360 09-08-2014 00:00:00 20.16771 C 80.6076 % 16.73 C
361 10-08-2014 00:00:00 19.0125 C 90.0208 % 17.34 C
362 11-08-2014 00:00:00 17.0066 C 81.0000 % 13.72 C
363 12-08-2014 00:00:00 17.62431 C 72.1944 % 12.56 C
364 13-08-2014 00:00:00 15.97674 C 89.6528 % 14.28 C
365 14-08-2014 00:00:00 16.15426 C 84.3298 % 13.51 C
366 15-08-2014 00:00:00 14.48638 C 92.1720 % 13.23 C
367 16-08-2014 00:00:00 15.13439 C 89.3930 % 13.4 C
368 17-08-2014 00:00:00 16.14062 C 77.5243 % 12.21 C
369 18-08-2014 00:00:00 16.30417 C 74.5313 % 11.77 C
370 19-08-2014 00:00:00 13.79653 C 83.4410 % 11.04 C
371 20-08-2014 00:00:00 12.68681 C 83.0799 % 9.89 C
372 21-08-2014 00:00:00 12.84653 C 82.9965 % 10.03 C
373 22-08-2014 00:00:00 14.04062 C 78.5000 % 10.36 C
374 23-08-2014 00:00:00 14.26875 C 83.3194 % 11.48 C
375 24-08-2014 00:00:00 11.58993 C 93.2465 % 10.54 C
Sensor: Nr:Datum:Temp:Feuchte:Taupunkt:
Aussen-T/F 376 25-08-2014 00:00:00 13.23854 C 93.7743 % 12.26 C
377 26-08-2014 00:00:00 14.79479 C 96.8681 % 14.3 C
378 27-08-2014 00:00:00 15.38741 C 91.3237 % 13.98 C
379 28-08-2014 00:00:00 15.84062 C 93.0556 % 14.72 C
380 29-08-2014 00:00:00 18.05278 C 88.6979 % 16.16 C
381 30-08-2014 00:00:00 16.23299 C 90.9965 % 14.76 C
382 31-08-2014 00:00:00 14.70069 C 92.8125 % 13.55 C
383 01-09-2014 00:00:00 14.60556 C 91.4896 % 13.24 C
384 02-09-2014 00:00:00 14.6191 C 90.6771 % 13.11 C
385 03-09-2014 00:00:00 15.03299 C 89.9549 % 13.4 C
386 04-09-2014 00:00:00 16.74028 C 89.6910 % 15.04 C
387 05-09-2014 00:00:00 18.15903 C 91.3819 % 16.73 C
388 06-09-2014 00:00:00 17.4559 C 92.7604 % 16.27 C
389 07-09-2014 00:00:00 18.08889 C 88.1264 % 16.09 C
390 08-09-2014 00:00:00 17.83403 C 84.0833 % 15.11 C
391 09-09-2014 00:00:00 15.64965 C 81.4410 % 12.48 C
392 10-09-2014 00:00:00 14.27882 C 83.4132 % 11.51 C
393 11-09-2014 00:00:00 14.96111 C 83.0903 % 12.12 C
394 12-09-2014 00:00:00 14.12153 C 84.7257 % 11.59 C
395 13-09-2014 00:00:00 16.12118 C 88.7743 % 14.27 C
396 14-09-2014 00:00:00 16.65196 C 88.0641 % 14.67 C
397 15-09-2014 00:00:00 16.079 C 91.5516 % 14.7 C
398 16-09-2014 00:00:00 16.93264 C 90.1458 % 15.31 C
399 17-09-2014 00:00:00 16.05139 C 92.2118 % 14.79 C
400 18-09-2014 00:00:00 17.4875 C 95.6215 % 16.78 C
Sensor: Nr:Datum:Temp:Feuchte:Taupunkt:
Aussen-T/F 401 19-09-2014 00:00:00 18.38993 C 95.2708 % 17.62 C
402 20-09-2014 00:00:00 17.14931 C 96.4583 % 16.58 C
403 21-09-2014 00:00:00 15.46146 C 95.3090 % 14.71 C
404 22-09-2014 00:00:00 12.53194 C 86.3194 % 10.31 C
405 23-09-2014 00:00:00 9.91146 C 90.8993 % 8.5 C
406 24-09-2014 00:00:00 11.10451 C 89.8056 % 9.5 C
407 25-09-2014 00:00:00 13.67917 C 85.6806 % 11.33 C
408 26-09-2014 00:00:00 14.24896 C 88.9653 % 12.46 C
409 27-09-2014 00:00:00 15.59965 C 91.2743 % 14.18 C
410 28-09-2014 00:00:00 14.22743 C 95.0660 % 13.45 C
411 29-09-2014 00:00:00 15.41493 C 94.8472 % 14.59 C
412 30-09-2014 00:00:00 16.83438 C 93.1875 % 15.73 C
413 01-10-2014 00:00:00 15.87778 C 94.6389 % 15.02 C
414 02-10-2014 00:00:00 14.35799 C 95.7326 % 13.69 C
415 03-10-2014 00:00:00 13.73785 C 95.4063 % 13.02 C
416 04-10-2014 00:00:00 12.86979 C 93.2014 % 11.8 C
417 05-10-2014 00:00:00 12.94097 C 94.0799 % 12.01 C
418 06-10-2014 00:00:00 14.3 C 90.3750 % 12.75 C
419 07-10-2014 00:00:00 13.71806 C 92.2986 % 12.49 C
420 08-10-2014 00:00:00 13.3 C 97.6069 % 12.93 C
421 09-10-2014 00:00:00 15.17173 C 97.6859 % 14.81 C
422 10-10-2014 00:00:00 14.20902 C 96.4000 % 13.64 C
423 11-10-2014 00:00:00 14.77847 C 96.0347 % 14.15 C
424 12-10-2014 00:00:00 12.52744 C 95.6029 % 11.84 C
425 13-10-2014 00:00:00 14.72014 C 96.7569 % 14.21 C
Sensor: Nr:Datum:Temp:Feuchte:Taupunkt:
Aussen-T/F 426 14-10-2014 00:00:00 12.54495 C 95.1847 % 11.8 C
427 15-10-2014 00:00:00 11.65639 C 95.3910 % 10.94 C
428 16-10-2014 00:00:00 14.02682 C 94.9818 % 13.24 C
429 17-10-2014 00:00:00 14.05977 C 93.7854 % 13.07 C
430 18-10-2014 00:00:00 12.49887 C 97.7283 % 12.15 C
431 19-10-2014 00:00:00 15.09722 C 92.7188 % 13.93 C
432 20-10-2014 00:00:00 15.06015 C 83.9885 % 12.38 C
433 21-10-2014 00:00:00 11.78491 C 85.1649 % 9.38 C
434 22-10-2014 00:00:00 8.88438 C 85.2674 % 6.55 C
435 23-10-2014 00:00:00 10.3816 C 87.9444 % 8.47 C
436 24-10-2014 00:00:00 10.59097 C 90.2951 % 9.07 C
437 25-10-2014 00:00:00 11.53056 C 94.5417 % 10.69 C
438 26-10-2014 00:00:00 11.35625 C 95.5278 % 10.67 C
439 27-10-2014 00:00:00 9.22813 C 96.0903 % 8.64 C
440 28-10-2014 00:00:00 7.93681 C 88.3750 % 6.14 C
441 29-10-2014 00:00:00 9.50556 C 91.5347 % 8.2 C
442 30-10-2014 00:00:00 12.10625 C 96.8819 % 11.63 C
443 31-10-2014 00:00:00 12.05903 C 97.0694 % 11.61 C
444 01-11-2014 00:00:00 10.92674 C 98.2674 % 10.66 C
445 02-11-2014 00:00:00 11.24448 C 97.2776 % 10.83 C
446 03-11-2014 00:00:00 13.84028 C 90.1806 % 12.26 C
447 04-11-2014 00:00:00 11.22049 C 96.5521 % 10.69 C
448 05-11-2014 00:00:00 9.33229 C 95.2257 % 8.61 C
449 06-11-2014 00:00:00 6.59514 C 92.6250 % 5.49 C
450 07-11-2014 00:00:00 5.60208 C 94.8160 % 4.84 C
Sensor: Nr:Datum:Temp:Feuchte:Taupunkt:
Aussen-T/F 451 08-11-2014 00:00:00 8.8941 C 91.4340 % 7.58 C
452 09-11-2014 00:00:00 6.62257 C 96.8125 % 6.15 C
453 10-11-2014 00:00:00 8.76389 C 96.3715 % 8.22 C
454 11-11-2014 00:00:00 8.47553 C 95.0106 % 7.72 C
455 12-11-2014 00:00:00 9.50104 C 95.2604 % 8.78 C
456 13-11-2014 00:00:00 9.66736 C 96.6806 % 9.17 C
457 14-11-2014 00:00:00 10.60174 C 90.0313 % 9.04 C
458 15-11-2014 00:00:00 9.75938 C 94.5347 % 8.93 C
459 16-11-2014 00:00:00 8.75674 C 97.4468 % 8.38 C
460 17-11-2014 00:00:00 8.71146 C 97.5799 % 8.35 C
461 18-11-2014 00:00:00 8.62491 C 96.7473 % 8.14 C
462 19-11-2014 00:00:00 8.07465 C 95.9514 % 7.47 C
463 20-11-2014 00:00:00 6.45486 C 94.4826 % 5.63 C
464 21-11-2014 00:00:00 5.36458 C 95.0799 % 4.64 C
465 22-11-2014 00:00:00 5.83576 C 95.7569 % 5.21 C
466 23-11-2014 00:00:00 6.30104 C 96.9931 % 5.86 C
467 24-11-2014 00:00:00 7.36679 C 94.6236 % 6.56 C
468 25-11-2014 00:00:00 3.04781 C 97.7769 % 2.73 C
469 26-11-2014 00:00:00 5.29848 C 89.8182 % 3.77 C
470 27-11-2014 00:00:00 5.85447 C 92.9300 % 4.8 C
471 28-11-2014 00:00:00 5.42203 C 91.8771 % 4.21 C
472 29-11-2014 00:00:00 4.46596 C 89.4070 % 2.88 C
473 30-11-2014 00:00:00 3.88993 C 91.8229 % 2.69 C
474 01-12-2014 00:00:00 3.33299 C 91.1840 % 2.04 C
475 02-12-2014 00:00:00 1.63731 C 91.3192 % 0.38 C
Sensor: Nr:Datum:Temp:Feuchte:Taupunkt:
Aussen-T/F 476 03-12-2014 00:00:00 1.74095 C 94.0216 % 0.88 C
477 04-12-2014 00:00:00 2.32917 C 92.6806 % 1.27 C
478 05-12-2014 00:00:00 4.15278 C 92.7500 % 3.09 C
479 06-12-2014 00:00:00 4.51389 C 95.0174 % 3.79 C
480 07-12-2014 00:00:00 4.32049 C 92.1597 % 3.16 C
481 08-12-2014 00:00:00 3.10625 C 93.1458 % 2.11 C
482 09-12-2014 00:00:00 2.57569 C 96.3472 % 2.05 C
483 10-12-2014 00:00:00 4.42118 C 89.8993 % 2.91 C
484 11-12-2014 00:00:00 6.26736 C 89.8125 % 4.72 C
485 12-12-2014 00:00:00 9.07951 C 85.8507 % 6.84 C
486 13-12-2014 00:00:00 4.45625 C 96.4618 % 3.94 C
487 14-12-2014 00:00:00 2.59063 C 96.5868 % 2.1 C
488 15-12-2014 00:00:00 3.42986 C 93.8646 % 2.54 C
489 16-12-2014 00:00:00 6.12049 C 91.8542 % 4.9 C
490 17-12-2014 00:00:00 6.08021 C 92.4167 % 4.95 C
491 18-12-2014 00:00:00 11.91597 C 90.3021 % 10.38 C
492 19-12-2014 00:00:00 10.45243 C 86.8194 % 8.35 C
493 20-12-2014 00:00:00 5.90764 C 85.4618 % 3.66 C
494 21-12-2014 00:00:00 6.41042 C 88.0833 % 4.59 C
495 22-12-2014 00:00:00 8.375 C 87.5139 % 6.43 C
496 23-12-2014 00:00:00 10.04444 C 85.6222 % 7.75 C
497 24-12-2014 00:00:00 8.3214 C 86.1158 % 6.14 C
498 25-12-2014 00:00:00 5.2875 C 85.6027 % 3.08 C
499 26-12-2014 00:00:00 2.31469 C 97.1259 % 1.91 C
500 27-12-2014 00:00:00 1.46649 C 94.8796 % 0.74 C
Sensor: Nr:Datum:Temp:Feuchte:Taupunkt:
Aussen-T/F 501 28-12-2014 00:00:00 -3.09591 C 79.8636 % -6.07 C
502 29-12-2014 00:00:00 -0.46157 C 89.7388 % -1.94 C
503 30-12-2014 00:00:00 2.6765 C 92.5574 % 1.59 C
504 31-12-2014 00:00:00 2.46053 C 93.8487 % 1.57 C
505 01-01-2015 00:00:00 1.89397 C 96.4741 % 1.39 C
506 02-01-2015 00:00:00 3.6411 C 89.1575 % 2.03 C
507 03-01-2015 00:00:00 1.94125 C 94.7000 % 1.18 C
508 04-01-2015 00:00:00 2.94172 C 93.6503 % 2.02 C
509 05-01-2015 00:00:00 -0.02447 C 95.0904 % -0.71 C
510 06-01-2015 00:00:00 0.48846 C 92.6923 % -0.55 C
511 07-01-2015 00:00:00 2.52604 C 92.4113 % 1.42 C
512 08-01-2015 00:00:00 6.62222 C 92.6632 % 5.52 C
513 09-01-2015 00:00:00 9.27879 C 85.8977 % 7.04 C
514 10-01-2015 00:00:00 13.56872 C 83.0051 % 10.74 C
515 11-01-2015 00:00:00 5.45068 C 76.2432 % 1.61 C
516 12-01-2015 00:00:00 6.91962 C 83.3811 % 4.3 C
517 13-01-2015 00:00:00 10.09231 C 75.4163 % 5.95 C
518 14-01-2015 00:00:00 5.9911 C 84.6525 % 3.61 C
519 15-01-2015 00:00:00 10.14352 C 76.1574 % 6.14 C
520 16-01-2015 00:00:00 6.66424 C 88.4201 % 4.89 C
521 17-01-2015 00:00:00 3.35174 C 91.5660 % 2.11 C
522 18-01-2015 00:00:00 1.91111 C 84.4965 % -0.42 C
523 19-01-2015 00:00:00 0.89028 C 89.3889 % -0.65 C
524 20-01-2015 00:00:00 0.86285 C 90.8576 % -0.46 C
525 21-01-2015 00:00:00 -0.0414 C 88.7123 % -1.68 C
Sensor: Nr:Datum:Temp:Feuchte:Taupunkt:
Aussen-T/F 526 22-01-2015 00:00:00 1.45625 C 84.8438 % -0.81 C
527 23-01-2015 00:00:00 1.33299 C 89.6736 % -0.17 C
528 24-01-2015 00:00:00 1.04056 C 91.7189 % -0.15 C
529 25-01-2015 00:00:00 2.19444 C 94.2396 % 1.37 C
530 26-01-2015 00:00:00 3.05694 C 95.0069 % 2.34 C
531 27-01-2015 00:00:00 3.85208 C 93.6806 % 2.93 C
532 28-01-2015 00:00:00 4.1184 C 90.7604 % 2.75 C
533 29-01-2015 00:00:00 3.03715 C 88.2431 % 1.29 C
534 30-01-2015 00:00:00 1.92569 C 90.3715 % 0.52 C
535 31-01-2015 00:00:00 2.07143 C 87.5437 % 0.23 C
536 01-02-2015 00:00:00 2.04274 C 93.0565 % 1.04 C
537 02-02-2015 00:00:00 2.35794 C 89.0635 % 0.75 C
538 03-02-2015 00:00:00 0.88769 C 90.6462 % -0.46 C
539 04-02-2015 00:00:00 0.04848 C 87.0379 % -1.84 C
540 05-02-2015 00:00:00 -1.86778 C 83.7333 % -4.25 C
541 06-02-2015 00:00:00 0.42153 C 69.7431 % -4.45 C
542 07-02-2015 00:00:00 -0.6316 C 80.7569 % -3.52 C
543 08-02-2015 00:00:00 3.19444 C 81.6701 % 0.37 C
544 09-02-2015 00:00:00 4.06597 C 90.9549 % 2.73 C
545 10-02-2015 00:00:00 4.96528 C 91.7188 % 3.73 C
546 11-02-2015 00:00:00 3.82917 C 87.1771 % 1.9 C
547 12-02-2015 00:00:00 2.75556 C 89.3854 % 1.19 C
548 13-02-2015 00:00:00 2.27396 C 89.2326 % 0.69 C
549 14-02-2015 00:00:00 3.73438 C 86.5382 % 1.7 C
550 15-02-2015 00:00:00 1.72778 C 89.3542 % 0.17 C
Sensor: Nr:Datum:Temp:Feuchte:Taupunkt:
Aussen-T/F 551 16-02-2015 00:00:00 1.82744 C 88.4874 % 0.13 C
552 17-02-2015 00:00:00 3.31146 C 88.3646 % 1.58 C
553 18-02-2015 00:00:00 4.09479 C 89.1493 % 2.47 C
554 19-02-2015 00:00:00 0.94861 C 88.1007 % -0.79 C
555 20-02-2015 00:00:00 6.96389 C 77.7326 % 3.35 C
556 21-02-2015 00:00:00 5.27535 C 85.5972 % 3.06 C
557 22-02-2015 00:00:00 3.72083 C 82.6285 % 1.05 C
558 23-02-2015 00:00:00 3.46944 C 89.0000 % 1.83 C
559 24-02-2015 00:00:00 4.88611 C 84.9757 % 2.58 C
560 25-02-2015 00:00:00 4.28403 C 89.1215 % 2.65 C
561 26-02-2015 00:00:00 6.06354 C 89.7708 % 4.51 C
562 27-02-2015 00:00:00 5.01736 C 91.6632 % 3.78 C
563 28-02-2015 00:00:00 2.37187 C 85.8854 % 0.26 C
564 01-03-2015 00:00:00 7.71493 C 80.8125 % 4.63 C
565 02-03-2015 00:00:00 6.14653 C 79.5556 % 2.88 C
566 03-03-2015 00:00:00 5.52812 C 78.2778 % 2.05 C
567 04-03-2015 00:00:00 4.51771 C 82.8576 % 1.86 C
568 05-03-2015 00:00:00 5.08681 C 83.0556 % 2.45 C
569 06-03-2015 00:00:00 4.14931 C 84.0660 % 1.71 C
570 07-03-2015 00:00:00 4.96007 C 81.3993 % 2.05 C
571 08-03-2015 00:00:00 6.05625 C 83.0174 % 3.4 C
572 09-03-2015 00:00:00 7.81354 C 84.5938 % 5.38 C
573 10-03-2015 00:00:00 5.56319 C 96.8542 % 5.1 C
574 11-03-2015 00:00:00 4.39549 C 87.3090 % 2.48 C
575 12-03-2015 00:00:00 3.92222 C 82.5382 % 1.23 C
Sensor: Nr:Datum:Temp:Feuchte:Taupunkt:
Aussen-T/F 576 13-03-2015 00:00:00 4.14514 C 76.4688 % 0.39 C
577 14-03-2015 00:00:00 4.55451 C 82.5729 % 1.85 C
578 15-03-2015 00:00:00 4.61042 C 89.4132 % 3.02 C
579 16-03-2015 00:00:00 4.68368 C 86.6736 % 2.66 C
580 17-03-2015 00:00:00 7.26632 C 81.9722 % 4.4 C
581 18-03-2015 00:00:00 9.08924 C 80.6424 % 5.94 C
582 19-03-2015 00:00:00 7.62431 C 91.9132 % 6.4 C
583 20-03-2015 00:00:00 8.07465 C 82.3889 % 5.26 C
584 21-03-2015 00:00:00 5.69201 C 90.0000 % 4.18 C
585 22-03-2015 00:00:00 5.19792 C 82.4965 % 2.47 C
586 23-03-2015 00:00:00 3.85521 C 84.2118 % 1.44 C
587 24-03-2015 00:00:00 6.94167 C 81.1181 % 3.93 C
588 25-03-2015 00:00:00 7.68056 C 84.0729 % 5.17 C
589 26-03-2015 00:00:00 7.17257 C 77.3333 % 3.48 C
590 27-03-2015 00:00:00 7.64965 C 74.8472 % 3.48 C
591 28-03-2015 00:00:00 8.51667 C 79.0243 % 5.09 C
592 29-03-2015 00:00:00 11.63659 C 83.7029 % 8.98 C
593 30-03-2015 00:00:00 8.21597 C 71.2222 % 3.32 C
594 31-03-2015 00:00:00 10.06181 C 74.1771 % 5.68 C
595 01-04-2015 00:00:00 6.38924 C 70.3542 % 1.4 C
596 02-04-2015 00:00:00 6.45868 C 73.6250 % 2.1 C
597 03-04-2015 00:00:00 5.87951 C 71.3819 % 1.11 C
598 04-04-2015 00:00:00 6.24896 C 76.7882 % 2.49 C
599 05-04-2015 00:00:00 5.21354 C 69.6042 % 0.12 C
600 06-04-2015 00:00:00 5.33542 C 76.9201 % 1.62 C
Sensor: Nr:Datum:Temp:Feuchte:Taupunkt:
Aussen-T/F 601 07-04-2015 00:00:00 5.98646 C 76.3785 % 2.16 C
602 08-04-2015 00:00:00 8.43776 C 77.5594 % 4.75 C
603 09-04-2015 00:00:00 11.19653 C 77.2118 % 7.36 C
604 10-04-2015 00:00:00 13.22708 C 68.0278 % 7.46 C
605 11-04-2015 00:00:00 12.37118 C 70.6736 % 7.2 C
606 12-04-2015 00:00:00 11.34444 C 70.3090 % 6.14 C
607 13-04-2015 00:00:00 11.50104 C 69.8576 % 6.2 C
608 14-04-2015 00:00:00 13.37778 C 67.0347 % 7.39 C
609 15-04-2015 00:00:00 16.43472 C 63.5799 % 9.51 C
610 16-04-2015 00:00:00 15.04757 C 69.6493 % 9.55 C
611 17-04-2015 00:00:00 11.41736 C 67.7951 % 5.69 C
612 18-04-2015 00:00:00 8.60486 C 64.9931 % 2.41 C
613 19-04-2015 00:00:00 9.50903 C 62.7708 % 2.78 C
614 20-04-2015 00:00:00 12.20312 C 60.9549 % 4.9 C
615 21-04-2015 00:00:00 13.69549 C 60.5278 % 6.21 C
616 22-04-2015 00:00:00 10.77465 C 69.4826 % 5.42 C
617 23-04-2015 00:00:00 10.84062 C 70.1806 % 5.63 C
618 24-04-2015 00:00:00 13.43403 C 62.6701 % 6.46 C
619 25-04-2015 00:00:00 12.95486 C 81.1250 % 9.8 C
620 26-04-2015 00:00:00 15.34444 C 79.1736 % 11.76 C
621 27-04-2015 00:00:00 10.42014 C 94.5868 % 9.59 C
622 28-04-2015 00:00:00 9.15382 C 73.6910 % 4.71 C
623 29-04-2015 00:00:00 8.3059 C 73.2951 % 3.82 C
624 30-04-2015 00:00:00 9.85764 C 80.8819 % 6.73 C
625 01-05-2015 00:00:00 8.17979 C 82.7700 % 5.43 C
Sensor: Nr:Datum:Temp:Feuchte:Taupunkt:
Aussen-T/F 626 02-05-2015 00:00:00 9.88958 C 78.1007 % 6.26 C
627 03-05-2015 00:00:00 13.80469 C 89.9856 % 12.19 C
628 04-05-2015 00:00:00 16.61875 C 81.1319 % 13.37 C
629 05-05-2015 00:00:00 18.45035 C 74.4514 % 13.83 C
630 06-05-2015 00:00:00 13.3566 C 69.4306 % 7.89 C
631 07-05-2015 00:00:00 13.35764 C 65.8646 % 7.12 C
632 08-05-2015 00:00:00 14.46632 C 68.7951 % 8.81 C
633 09-05-2015 00:00:00 15.2441 C 75.9410 % 11.03 C
634 10-05-2015 00:00:00 14.78229 C 75.1944 % 10.44 C
635 11-05-2015 00:00:00 17.12812 C 73.8611 % 12.43 C
636 12-05-2015 00:00:00 18.0309 C 74.6181 % 13.46 C
637 13-05-2015 00:00:00 14.45208 C 67.5590 % 8.53 C
638 14-05-2015 00:00:00 14.14351 C 72.7298 % 9.33 C
639 15-05-2015 00:00:00 15.02882 C 77.6215 % 11.15 C
640 16-05-2015 00:00:00 12.01528 C 78.7569 % 8.45 C
641 17-05-2015 00:00:00 14.18924 C 70.3750 % 8.88 C
642 18-05-2015 00:00:00 15.27535 C 65.6250 % 8.88 C
643 19-05-2015 00:00:00 13.64941 C 60.6403 % 6.19 C
644 20-05-2015 00:00:00 11.71144 C 70.5166 % 6.54 C
645 21-05-2015 00:00:00 11.60764 C 69.7118 % 6.27 C
646 22-05-2015 00:00:00 15.74722 C 61.0868 % 8.27 C
647 23-05-2015 00:00:00 15.85278 C 71.0625 % 10.62 C
648 24-05-2015 00:00:00 17.02887 C 75.7852 % 12.73 C
649 25-05-2015 00:00:00 13.82968 C 88.0452 % 11.89 C
650 26-05-2015 00:00:00 11.87604 C 75.6736 % 7.72 C
Sensor: Nr:Datum:Temp:Feuchte:Taupunkt:
Aussen-T/F 651 27-05-2015 00:00:00 11.63958 C 70.3194 % 6.43 C
652 28-05-2015 00:00:00 14.21944 C 69.5104 % 8.73 C
653 29-05-2015 00:00:00 13.27367 C 76.0712 % 9.15 C
654 30-05-2015 00:00:00 12.66319 C 71.2188 % 7.59 C
655 31-05-2015 00:00:00 14.50903 C 73.4653 % 9.83 C
656 01-06-2015 00:00:00 14.86667 C 79.3472 % 11.33 C
657 02-06-2015 00:00:00 16.57639 C 73.3056 % 11.78 C
658 03-06-2015 00:00:00 17.74965 C 70.8646 % 12.4 C
659 04-06-2015 00:00:00 18.54896 C 65.3993 % 11.94 C
660 05-06-2015 00:00:00 22.1191 C 67.8681 % 15.91 C
661 06-06-2015 00:00:00 19.94028 C 80.0208 % 16.39 C
662 07-06-2015 00:00:00 18.04306 C 59.8576 % 10.13 C
663 08-06-2015 00:00:00 16.17222 C 63.8056 % 9.32 C
664 09-06-2015 00:00:00 14.94792 C 62.4688 % 7.85 C
665 10-06-2015 00:00:00 17.10208 C 66.1146 % 10.73 C
666 11-06-2015 00:00:00 19.95895 C 61.7825 % 12.41 C
667 12-06-2015 00:00:00 19.48699 C 78.0855 % 15.57 C
668 13-06-2015 00:00:00 18.63958 C 85.4028 % 16.14 C
669 14-06-2015 00:00:00 19.07708 C 68.7674 % 13.21 C
670 15-06-2015 00:00:00 17.59271 C 74.7535 % 13.06 C
671 16-06-2015 00:00:00 15.68924 C 63.0868 % 8.69 C
672 17-06-2015 00:00:00 15.5816 C 65.6250 % 9.18 C
673 18-06-2015 00:00:00 17.15625 C 75.1736 % 12.73 C
674 19-06-2015 00:00:00 12.7559 C 82.5104 % 9.86 C
675 20-06-2015 00:00:00 13.05547 C 82.0000 % 10.06 C
Sensor: Nr:Datum:Temp:Feuchte:Taupunkt:
Aussen-T/F 676 21-06-2015 00:00:00 15.43396 C 84.8358 % 12.9 C
677 22-06-2015 00:00:00 13.19855 C 87.9273 % 11.24 C
678 23-06-2015 00:00:00 11.71206 C 92.2057 % 10.49 C
679 24-06-2015 00:00:00 14.96215 C 81.0417 % 11.74 C
680 25-06-2015 00:00:00 17.94306 C 75.7118 % 13.6 C
681 26-06-2015 00:00:00 19.40139 C 78.2465 % 15.52 C
682 27-06-2015 00:00:00 20.26461 C 74.9877 % 15.69 C
683 28-06-2015 00:00:00 18.39741 C 72.8405 % 13.44 C
684 29-06-2015 00:00:00 23.63875 C 61.7438 % 15.87 C
685 30-06-2015 00:00:00 21.94847 C 63.2710 % 14.65 C
686 01-07-2015 00:00:00 24.13993 C 63.3022 % 16.73 C
687 02-07-2015 00:00:00 26.83474 C 64.8246 % 19.66 C
688 03-07-2015 00:00:00 28.2408 C 65.4400 % 21.14 C
689 04-07-2015 00:00:00 27.77951 C 67.8229 % 21.29 C
690 05-07-2015 00:00:00 26.75417 C 64.4028 % 19.47 C
691 06-07-2015 00:00:00 23.89674 C 54.1630 % 14.07 C
692 07-07-2015 00:00:00 23.4251 C 64.1833 % 16.27 C
693 08-07-2015 00:00:00 17.62465 C 71.6944 % 12.45 C
694 09-07-2015 00:00:00 16.50669 C 68.3134 % 10.65 C
695 10-07-2015 00:00:00 17.02947 C 57.6175 % 8.61 C
696 11-07-2015 00:00:00 21.24132 C 54.9340 % 11.83 C
697 12-07-2015 00:00:00 19.0157 C 71.3264 % 13.71 C
698 13-07-2015 00:00:00 17.93777 C 85.0638 % 15.39 C
699 14-07-2015 00:00:00 21.06476 C 74.5551 % 16.37 C
700 15-07-2015 00:00:00 21.59368 C 75.8000 % 17.14 C
Sensor: Nr:Datum:Temp:Feuchte:Taupunkt:
Aussen-T/F 701 16-07-2015 00:00:00 24.00382 C 71.6667 % 18.57 C
702 17-07-2015 00:00:00 28.34301 C 50.2206 % 16.99 C
703 18-07-2015 00:00:00 23.63602 C 62.5441 % 16.06 C
704 19-07-2015 00:00:00 21.84756 C 77.9451 % 17.83 C
705 20-07-2015 00:00:00 22.02667 C 88.1833 % 19.98 C
706 21-07-2015 00:00:00 26.21048 C 69.2476 % 20.13 C
707 22-07-2015 00:00:00 23.3275 C 74.4857 % 18.53 C
708 23-07-2015 00:00:00 20.60312 C 64.9514 % 13.78 C
709 24-07-2015 00:00:00 21.45543 C 69.6180 % 15.67 C
710 25-07-2015 00:00:00 17.38849 C 77.9048 % 13.5 C
711 26-07-2015 00:00:00 15.82244 C 71.9961 % 10.79 C
712 27-07-2015 00:00:00 17.63472 C 81.2604 % 14.39 C
713 28-07-2015 00:00:00 17.16294 C 63.9825 % 10.3 C
714 29-07-2015 00:00:00 17.78846 C 55.9808 % 8.9 C
715 30-07-2015 00:00:00 14.2708 C 74.1720 % 9.74 C
716 31-07-2015 00:00:00 16.9314 C 65.0744 % 10.33 C
717 01-08-2015 00:00:00 19.24097 C 59.1319 % 11.07 C
718 02-08-2015 00:00:00 20.84722 C 61.6979 % 13.23 C
719 03-08-2015 00:00:00 23.19217 C 57.6157 % 14.37 C
720 04-08-2015 00:00:00 19.03299 C 81.7396 % 15.84 C
721 05-08-2015 00:00:00 19.79201 C 76.1424 % 15.47 C
722 06-08-2015 00:00:00 24 C 66.2153 % 17.31 C
723 07-08-2015 00:00:00 26.94306 C 61.3715 % 18.88 C
724 08-08-2015 00:00:00 22.82014 C 79.2431 % 19.03 C
725 09-08-2015 00:00:00 21.98785 C 77.7708 % 17.93 C
Sensor: Nr:Datum:Temp:Feuchte:Taupunkt:
Aussen-T/F 726 10-08-2015 00:00:00 19.76944 C 83.2465 % 16.85 C
727 11-08-2015 00:00:00 21.91979 C 74.4583 % 17.17 C
728 12-08-2015 00:00:00 23.09896 C 77.4583 % 18.94 C
729 13-08-2015 00:00:00 25.32292 C 70.7535 % 19.63 C
730 14-08-2015 00:00:00 24.17396 C 69.3611 % 18.21 C
731 15-08-2015 00:00:00 20.86319 C 72.4201 % 15.72 C
732 16-08-2015 00:00:00 15.85799 C 89.8924 % 14.2 C
733 17-08-2015 00:00:00 14.78889 C 90.7396 % 13.29 C
734 18-08-2015 00:00:00 15.90625 C 82.9757 % 13.02 C
735 19-08-2015 00:00:00 15.71493 C 78.1458 % 11.92 C
736 20-08-2015 00:00:00 18.10382 C 74.0625 % 13.41 C
737 21-08-2015 00:00:00 18.85764 C 70.1910 % 13.31 C
738 22-08-2015 00:00:00 19.10729 C 64.2708 % 12.21 C
739 23-08-2015 00:00:00 19.89722 C 63.7431 % 12.83 C
740 24-08-2015 00:00:00 19.22187 C 83.3750 % 16.34 C
741 25-08-2015 00:00:00 17.40729 C 68.3472 % 11.52 C
742 26-08-2015 00:00:00 20.71458 C 65.1667 % 13.94 C
743 27-08-2015 00:00:00 18.60486 C 83.2986 % 15.72 C
744 28-08-2015 00:00:00 16.57292 C 89.2813 % 14.8 C
745 29-08-2015 00:00:00 19.31181 C 88.3993 % 17.35 C
746 30-08-2015 00:00:00 23.12396 C 82.7396 % 20.03 C
747 31-08-2015 00:00:00 24.2934 C 69.7604 % 18.42 C
748 01-09-2015 00:00:00 17.4059 C 90.9826 % 15.92 C
749 02-09-2015 00:00:00 15.13229 C 84.9479 % 12.62 C
750 03-09-2015 00:00:00 13.95937 C 84.7326 % 11.43 C
Sensor: Nr:Datum:Temp:Feuchte:Taupunkt:
Aussen-T/F 751 04-09-2015 00:00:00 13.54792 C 79.5833 % 10.09 C
752 05-09-2015 00:00:00 13.21701 C 84.4479 % 10.65 C
753 06-09-2015 00:00:00 13.11632 C 74.0868 % 8.61 C
754 07-09-2015 00:00:00 13.56493 C 87.0000 % 11.44 C
755 08-09-2015 00:00:00 15.09236 C 84.9271 % 12.58 C
756 09-09-2015 00:00:00 15.60139 C 76.2118 % 11.43 C
757 10-09-2015 00:00:00 13.23854 C 76.5972 % 9.22 C
758 11-09-2015 00:00:00 13.19792 C 79.2847 % 9.69 C
759 12-09-2015 00:00:00 15.35312 C 83.7361 % 12.62 C
760 13-09-2015 00:00:00 17.07153 C 92.6042 % 15.86 C
761 14-09-2015 00:00:00 15.52639 C 91.7431 % 14.19 C
762 15-09-2015 00:00:00 12.94931 C 87.0938 % 10.86 C
763 16-09-2015 00:00:00 15.01667 C 93.7153 % 14.01 C
764 17-09-2015 00:00:00 14.6566 C 91.2049 % 13.24 C
765 18-09-2015 00:00:00 14.53542 C 85.5278 % 12.14 C
766 19-09-2015 00:00:00 14.32292 C 87.2118 % 12.23 C
767 20-09-2015 00:00:00 13.77188 C 84.7743 % 11.26 C
768 21-09-2015 00:00:00 12.22847 C 90.1354 % 10.66 C
769 22-09-2015 00:00:00 13.06701 C 91.6285 % 11.74 C
770 23-09-2015 00:00:00 11.92535 C 93.3056 % 10.88 C
771 24-09-2015 00:00:00 13.09618 C 90.9340 % 11.65 C
772 25-09-2015 00:00:00 13.95278 C 87.2257 % 11.86 C
773 26-09-2015 00:00:00 12.73889 C 89.2049 % 11.01 C
774 27-09-2015 00:00:00 11.29236 C 83.7500 % 8.65 C
775 28-09-2015 00:00:00 10.50729 C 82.5556 % 7.67 C
Sensor: Nr:Datum:Temp:Feuchte:Taupunkt:
Aussen-T/F 776 29-09-2015 00:00:00 10.96979 C 81.2257 % 7.88 C
777 30-09-2015 00:00:00 10.73368 C 77.8993 % 7.04 C
778 01-10-2015 00:00:00 9.88646 C 74.8576 % 5.64 C
779 02-10-2015 00:00:00 9.21528 C 85.2083 % 6.86 C
780 03-10-2015 00:00:00 11.40139 C 85.8993 % 9.13 C
781 04-10-2015 00:00:00 12.61562 C 91.5000 % 11.27 C
782 05-10-2015 00:00:00 11.96597 C 92.3958 % 10.77 C
783 06-10-2015 00:00:00 15.93854 C 95.3576 % 15.2 C
784 07-10-2015 00:00:00 14.99028 C 89.4375 % 13.27 C
785 08-10-2015 00:00:00 13.45521 C 86.9167 % 11.32 C
786 09-10-2015 00:00:00 12.29618 C 93.3993 % 11.26 C
787 10-10-2015 00:00:00 12.19271 C 87.9236 % 10.25 C
788 11-10-2015 00:00:00 8.37431 C 76.8542 % 4.56 C
789 12-10-2015 00:00:00 5.28229 C 82.6007 % 2.57 C
790 13-10-2015 00:00:00 4.33542 C 90.2049 % 2.88 C
791 14-10-2015 00:00:00 3.63333 C 95.0139 % 2.91 C
792 15-10-2015 00:00:00 4.25694 C 95.2500 % 3.57 C
793 16-10-2015 00:00:00 6.52431 C 92.4236 % 5.39 C
794 17-10-2015 00:00:00 6.99375 C 89.5000 % 5.39 C
795 18-10-2015 00:00:00 7.25556 C 90.9896 % 5.89 C
796 19-10-2015 00:00:00 8.22361 C 91.6285 % 6.94 C
797 20-10-2015 00:00:00 9.33576 C 93.8785 % 8.4 C
798 21-10-2015 00:00:00 9.83611 C 91.5903 % 8.53 C
799 22-10-2015 00:00:00 11.18472 C 88.5000 % 9.36 C
800 23-10-2015 00:00:00 10.26979 C 95.0417 % 9.51 C
Sensor: Nr:Datum:Temp:Feuchte:Taupunkt:
Aussen-T/F 801 24-10-2015 00:00:00 11.03438 C 89.7465 % 9.42 C
802 25-10-2015 00:00:00 11.68229 C 92.6528 % 10.53 C
803 26-10-2015 00:00:00 9.55312 C 94.6736 % 8.74 C
804 27-10-2015 00:00:00 8.10278 C 94.6701 % 7.3 C
805 28-10-2015 00:00:00 9.54444 C 91.5382 % 8.24 C
806 29-10-2015 00:00:00 10.48299 C 92.5799 % 9.33 C
807 30-10-2015 00:00:00 7.79965 C 95.7917 % 7.17 C
808 31-10-2015 00:00:00 7.27118 C 93.9479 % 6.36 C
809 01-11-2015 00:00:00 6.57708 C 96.2118 % 6.02 C
810 02-11-2015 00:00:00 4.67431 C 96.7049 % 4.2 C
811 03-11-2015 00:00:00 4.99896 C 95.2813 % 4.31 C
812 04-11-2015 00:00:00 7.79549 C 94.1146 % 6.91 C
813 05-11-2015 00:00:00 10.38299 C 95.2569 % 9.66 C
814 06-11-2015 00:00:00 13.31493 C 92.8854 % 12.19 C
815 07-11-2015 00:00:00 16.40417 C 94.1493 % 15.46 C
816 08-11-2015 00:00:00 12.97292 C 95.2118 % 12.23 C
817 09-11-2015 00:00:00 14.80846 C 83.2353 % 11.99 C
818 10-11-2015 00:00:00 13.07951 C 84.1493 % 10.47 C
819 11-11-2015 00:00:00 11.7066 C 84.5625 % 9.2 C
820 12-11-2015 00:00:00 11.71562 C 87.6354 % 9.73 C
821 13-11-2015 00:00:00 10.51875 C 88.3993 % 8.68 C
822 14-11-2015 00:00:00 8.91806 C 83.4722 % 6.27 C
823 15-11-2015 00:00:00 12.53854 C 84.1944 % 9.95 C
824 16-11-2015 00:00:00 11.63438 C 83.7708 % 8.99 C
825 17-11-2015 00:00:00 14.03889 C 89.3438 % 12.31 C
Sensor: Nr:Datum:Temp:Feuchte:Taupunkt:
Aussen-T/F 826 18-11-2015 00:00:00 13.87604 C 73.4063 % 9.21 C
827 19-11-2015 00:00:00 12.23611 C 85.8750 % 9.94 C
828 20-11-2015 00:00:00 7.64444 C 94.6667 % 6.84 C
829 21-11-2015 00:00:00 3.88021 C 91.2500 % 2.59 C
830 22-11-2015 00:00:00 2.85139 C 91.2396 % 1.57 C
831 23-11-2015 00:00:00 2.48125 C 91.7917 % 1.29 C
832 24-11-2015 00:00:00 1.88785 C 89.9931 % 0.42 C
833 25-11-2015 00:00:00 4.63646 C 91.6528 % 3.4 C
834 26-11-2015 00:00:00 4.92257 C 92.5174 % 3.81 C
835 27-11-2015 00:00:00 2.23299 C 94.7951 % 1.49 C
836 28-11-2015 00:00:00 4.42821 C 85.6357 % 2.24 C
837 29-11-2015 00:00:00 9.10451 C 86.0660 % 6.9 C
838 30-11-2015 00:00:00 9.89514 C 90.3056 % 8.38 C
839 01-12-2015 00:00:00 11.24618 C 92.4410 % 10.07 C
840 02-12-2015 00:00:00 9.85729 C 87.9375 % 7.96 C
841 03-12-2015 00:00:00 7.55664 C 86.3252 % 5.42 C
842 04-12-2015 00:00:00 6.93333 C 91.5694 % 5.66 C
843 05-12-2015 00:00:00 6.05903 C 89.7500 % 4.51 C
844 06-12-2015 00:00:00 8.44861 C 86.8160 % 6.38 C
845 07-12-2015 00:00:00 8.35868 C 92.6840 % 7.24 C
846 08-12-2015 00:00:00 4.51007 C 97.2292 % 4.11 C
847 09-12-2015 00:00:00 6.58229 C 94.7396 % 5.8 C
848 10-12-2015 00:00:00 3.22882 C 93.5590 % 2.29 C
849 11-12-2015 00:00:00 4.75451 C 92.5069 % 3.65 C
850 12-12-2015 00:00:00 8.05903 C 95.3681 % 7.36 C
Sensor: Nr:Datum:Temp:Feuchte:Taupunkt:
Aussen-T/F 851 13-12-2015 00:00:00 8.6316 C 90.9167 % 7.23 C
852 14-12-2015 00:00:00 5.9875 C 96.5243 % 5.48 C
853 15-12-2015 00:00:00 5.6816 C 96.2813 % 5.14 C
854 16-12-2015 00:00:00 9.66146 C 97.4514 % 9.28 C
855 17-12-2015 00:00:00 12.51647 C 94.1098 % 11.6 C
856 18-12-2015 00:00:00 11.17396 C 93.8472 % 10.22 C
857 19-12-2015 00:00:00 11.26667 C 91.7708 % 9.98 C
858 20-12-2015 00:00:00 7.84687 C 96.5278 % 7.33 C
859 21-12-2015 00:00:00 10.07014 C 88.0938 % 8.19 C
860 22-12-2015 00:00:00 11.62281 C 82.5175 % 8.75 C
861 23-12-2015 00:00:00 10.964 C 81.0000 % 7.83 C
862 24-12-2015 00:00:00 11.76867 C 85.1506 % 9.36 C
863 25-12-2015 00:00:00 11.08646 C 87.9063 % 9.16 C
864 26-12-2015 00:00:00 10.37257 C 87.6354 % 8.41 C
865 27-12-2015 00:00:00 7.5375 C 92.7847 % 6.45 C
866 28-12-2015 00:00:00 2.6941 C 97.0833 % 2.28 C
867 29-12-2015 00:00:00 3.10521 C 97.6493 % 2.77 C
868 30-12-2015 00:00:00 4.88299 C 93.8507 % 3.98 C
869 31-12-2015 00:00:00 5.0934 C 93.0000 % 4.06 C
870 01-01-2016 00:00:00 4.17222 C 95.5521 % 3.53 C
871 02-01-2016 00:00:00 4.50451 C 93.6563 % 3.57 C
872 03-01-2016 00:00:00 5.64826 C 92.3889 % 4.51 C
873 04-01-2016 00:00:00 5.3184 C 94.4861 % 4.51 C
874 05-01-2016 00:00:00 6.45694 C 91.6285 % 5.2 C
875 06-01-2016 00:00:00 5.95903 C 94.3542 % 5.12 C
Sensor: Nr:Datum:Temp:Feuchte:Taupunkt:
Aussen-T/F 876 07-01-2016 00:00:00 5.04028 C 94.1042 % 4.17 C
877 08-01-2016 00:00:00 3.28646 C 90.7396 % 1.92 C
878 09-01-2016 00:00:00 1.12292 C 97.2361 % 0.73 C
879 10-01-2016 00:00:00 6.27708 C 91.8785 % 5.06 C
880 11-01-2016 00:00:00 5.25729 C 94.6875 % 4.48 C
881 12-01-2016 00:00:00 5.58229 C 88.8229 % 3.89 C
882 13-01-2016 00:00:00 4.93333 C 89.9931 % 3.43 C
883 14-01-2016 00:00:00 3.31701 C 89.1944 % 1.71 C
884 15-01-2016 00:00:00 2.89062 C 90.6806 % 1.52 C
885 16-01-2016 00:00:00 2.0875 C 90.9653 % 0.77 C
886 17-01-2016 00:00:00 0.26424 C 83.9583 % -2.12 C
887 18-01-2016 00:00:00 -4.85799 C 90.6840 % -6.14 C
888 19-01-2016 00:00:00 -5.27882 C 89.7257 % -6.7 C
889 20-01-2016 00:00:00 -1.61806 C 91.4618 % -2.82 C
890 21-01-2016 00:00:00 0.6684 C 92.9618 % -0.34 C
891 22-01-2016 00:00:00 -2.10729 C 91.9201 % -3.24 C
892 23-01-2016 00:00:00 4.1559 C 94.7465 % 3.39 C
893 24-01-2016 00:00:00 5.37396 C 93.7882 % 4.46 C
894 25-01-2016 00:00:00 7.51076 C 93.2813 % 6.5 C
895 26-01-2016 00:00:00 9.35729 C 85.4410 % 7.04 C
896 27-01-2016 00:00:00 11.44792 C 70.5313 % 6.29 C
897 28-01-2016 00:00:00 7.3625 C 85.9931 % 5.18 C
898 29-01-2016 00:00:00 5.64583 C 86.0833 % 3.51 C
899 30-01-2016 00:00:00 7.42914 C 86.8885 % 5.39 C
900 31-01-2016 00:00:00 6.31944 C 89.3819 % 4.7 C
Sensor: Nr:Datum:Temp:Feuchte:Taupunkt:
Aussen-T/F 901 01-02-2016 00:00:00 11.92326 C 84.3993 % 9.38 C
902 02-02-2016 00:00:00 10.40035 C 86.6354 % 8.27 C
903 03-02-2016 00:00:00 5.14306 C 85.1354 % 2.86 C
904 04-02-2016 00:00:00 4.62118 C 90.7153 % 3.24 C
905 05-02-2016 00:00:00 7.46076 C 91.2847 % 6.13 C
906 06-02-2016 00:00:00 8.36806 C 86.5069 % 6.25 C
907 07-02-2016 00:00:00 9.22743 C 76.8021 % 5.37 C
908 08-02-2016 00:00:00 8.09062 C 80.4167 % 4.93 C
909 09-02-2016 00:00:00 7.11076 C 85.9306 % 4.92 C
910 10-02-2016 00:00:00 4.86562 C 85.1493 % 2.59 C
911 11-02-2016 00:00:00 4.89444 C 87.2674 % 2.96 C
912 12-02-2016 00:00:00 3.0316 C 85.9826 % 0.92 C
913 13-02-2016 00:00:00 1.57049 C 93.5625 % 0.65 C
914 14-02-2016 00:00:00 4.64965 C 94.9931 % 3.92 C
915 15-02-2016 00:00:00 2.20278 C 91.7396 % 1 C
916 16-02-2016 00:00:00 0.19792 C 81.4688 % -2.59 C
917 17-02-2016 00:00:00 0.40625 C 88.6771 % -1.24 C
918 18-02-2016 00:00:00 2.11285 C 85.4514 % -0.07 C
919 19-02-2016 00:00:00 1.43507 C 92.3472 % 0.33 C
920 20-02-2016 00:00:00 6.41528 C 92.1944 % 5.24 C
921 21-02-2016 00:00:00 11.8375 C 88.1042 % 9.93 C
922 22-02-2016 00:00:00 9.57778 C 85.1250 % 7.21 C
923 23-02-2016 00:00:00 2.26424 C 95.8333 % 1.67 C
924 24-02-2016 00:00:00 2.15243 C 91.2674 % 0.88 C
925 25-02-2016 00:00:00 0.66597 C 90.3507 % -0.73 C
Sensor: Nr:Datum:Temp:Feuchte:Taupunkt:
Aussen-T/F 926 26-02-2016 00:00:00 2.36771 C 85.4931 % 0.19 C
927 27-02-2016 00:00:00 2.35694 C 77.3333 % -1.19 C
928 28-02-2016 00:00:00 2.12509 C 77.4145 % -1.4 C
929 29-02-2016 00:00:00 3.32569 C 70.7847 % -1.46 C
930 01-03-2016 00:00:00 1.1875 C 81.7361 % -1.58 C
931 02-03-2016 00:00:00 6.5125 C 83.4375 % 3.91 C
932 03-03-2016 00:00:00 3.61736 C 87.0208 % 1.66 C
933 04-03-2016 00:00:00 1.76528 C 93.4722 % 0.83 C
934 05-03-2016 00:00:00 4.32153 C 92.1042 % 3.16 C
935 06-03-2016 00:00:00 3.0434 C 94.2535 % 2.21 C
936 07-03-2016 00:00:00 2.40347 C 93.7049 % 1.5 C
937 08-03-2016 00:00:00 1.75521 C 90.5972 % 0.39 C
938 09-03-2016 00:00:00 2.60799 C 83.1042 % 0.04 C
939 10-03-2016 00:00:00 2.73576 C 83.8264 % 0.28 C
940 11-03-2016 00:00:00 4.25868 C 83.4757 % 1.71 C
941 12-03-2016 00:00:00 4.36424 C 78.1215 % 0.9 C
942 13-03-2016 00:00:00 5.06944 C 77.3924 % 1.45 C
943 14-03-2016 00:00:00 4.20451 C 71.0174 % -0.57 C
944 15-03-2016 00:00:00 3.53264 C 80.5833 % 0.52 C
945 16-03-2016 00:00:00 4.7066 C 73.0556 % 0.3 C
946 17-03-2016 00:00:00 4.57049 C 75.0625 % 0.54 C
947 18-03-2016 00:00:00 3.8934 C 83.0868 % 1.29 C
948 19-03-2016 00:00:00 5.67465 C 87.0938 % 3.7 C
949 20-03-2016 00:00:00 5.89583 C 80.9514 % 2.88 C
950 21-03-2016 00:00:00 7.0625 C 84.7813 % 4.68 C
Sensor: Nr:Datum:Temp:Feuchte:Taupunkt:
Aussen-T/F 951 22-03-2016 00:00:00 8.10035 C 79.6354 % 4.8 C
952 23-03-2016 00:00:00 7.93438 C 81.8576 % 5.03 C
953 24-03-2016 00:00:00 7.05069 C 85.9410 % 4.86 C
954 25-03-2016 00:00:00 6.93125 C 92.5347 % 5.81 C
955 26-03-2016 00:00:00 9.02778 C 82.5382 % 6.22 C
956 27-03-2016 00:00:00 9.36558 C 82.0543 % 6.46 C
957 28-03-2016 00:00:00 8.24167 C 84.3993 % 5.77 C
958 29-03-2016 00:00:00 9.19792 C 74.2535 % 4.86 C
959 30-03-2016 00:00:00 9.98958 C 84.7431 % 7.54 C
960 31-03-2016 00:00:00 7.10243 C 92.7153 % 6 C
961 01-04-2016 00:00:00 7.02396 C 85.1076 % 4.7 C
962 02-04-2016 00:00:00 8.56007 C 85.2361 % 6.23 C
963 03-04-2016 00:00:00 13.56285 C 81.3472 % 10.43 C
964 04-04-2016 00:00:00 13.63299 C 81.7951 % 10.58 C
965 05-04-2016 00:00:00 11.25069 C 92.5313 % 10.09 C
966 06-04-2016 00:00:00 10.87153 C 79.3507 % 7.44 C
967 07-04-2016 00:00:00 8.49479 C 75.7014 % 4.46 C
968 08-04-2016 00:00:00 6.48403 C 79.6181 % 3.22 C
969 09-04-2016 00:00:00 8.00139 C 72.3785 % 3.34 C
970 10-04-2016 00:00:00 11.74757 C 69.9479 % 6.45 C
971 11-04-2016 00:00:00 12.00972 C 70.4757 % 6.81 C
972 12-04-2016 00:00:00 11.31181 C 78.9861 % 7.8 C
973 13-04-2016 00:00:00 8.81354 C 93.8854 % 7.88 C
974 14-04-2016 00:00:00 10.59722 C 80.6215 % 7.41 C
975 15-04-2016 00:00:00 13.04618 C 74.1493 % 8.55 C
Sensor: Nr:Datum:Temp:Feuchte:Taupunkt:
Aussen-T/F 976 16-04-2016 00:00:00 11.99514 C 81.5035 % 8.93 C
977 17-04-2016 00:00:00 8.41111 C 77.1875 % 4.65 C
978 18-04-2016 00:00:00 7.11632 C 74.6910 % 2.94 C
979 19-04-2016 00:00:00 8.83507 C 72.7292 % 4.22 C
980 20-04-2016 00:00:00 9.1559 C 66.4826 % 3.25 C
981 21-04-2016 00:00:00 11.43229 C 64.2431 % 4.93 C
982 22-04-2016 00:00:00 13.17674 C 62.2014 % 6.11 C
983 23-04-2016 00:00:00 7.88299 C 78.2292 % 4.33 C
984 24-04-2016 00:00:00 5.24444 C 78.5243 % 1.82 C
985 25-04-2016 00:00:00 4.71632 C 85.9792 % 2.58 C
986 26-04-2016 00:00:00 4.5934 C 82.9306 % 1.95 C
987 27-04-2016 00:00:00 5.57465 C 78.2847 % 2.1 C
988 28-04-2016 00:00:00 6.65 C 71.1007 % 1.8 C
989 29-04-2016 00:00:00 7.88056 C 69.0972 % 2.58 C
990 30-04-2016 00:00:00 7.70174 C 83.3611 % 5.06 C
991 01-05-2016 00:00:00 10.10486 C 81.5451 % 7.09 C
992 02-05-2016 00:00:00 12.06389 C 73.2674 % 7.43 C
993 03-05-2016 00:00:00 10.93785 C 75.7222 % 6.83 C
994 04-05-2016 00:00:00 9.10035 C 68.4063 % 3.6 C
995 05-05-2016 00:00:00 11.45347 C 67.3507 % 5.63 C
996 06-05-2016 00:00:00 15.34618 C 68.6806 % 9.63 C
997 07-05-2016 00:00:00 16.83542 C 65.2604 % 10.28 C
998 08-05-2016 00:00:00 18.59861 C 52.5521 % 8.72 C
999 09-05-2016 00:00:00 18.28715 C 61.7326 % 10.82 C
1000 10-05-2016 00:00:00 17.08646 C 77.6076 % 13.15 C
Sensor: Nr:Datum:Temp:Feuchte:Taupunkt:
Aussen-T/F 1001 11-05-2016 00:00:00 17.43438 C 75.9340 % 13.15 C
1002 12-05-2016 00:00:00 17.84271 C 69.8472 % 12.27 C
1003 13-05-2016 00:00:00 14.31736 C 89.5903 % 12.63 C
1004 14-05-2016 00:00:00 10.45972 C 71.9549 % 5.63 C
1005 15-05-2016 00:00:00 9.07743 C 70.0069 % 3.91 C
1006 16-05-2016 00:00:00 9.98819 C 70.5069 % 4.88 C
1007 17-05-2016 00:00:00 12.31563 C 69.0139 % 6.8 C
1008 18-05-2016 00:00:00 14.47535 C 74.1007 % 9.92 C
1009 19-05-2016 00:00:00 14.04722 C 75.6667 % 9.82 C
1010 20-05-2016 00:00:00 14.08125 C 79.6771 % 10.63 C
1011 21-05-2016 00:00:00 17.67708 C 74.5382 % 13.1 C
1012 22-05-2016 00:00:00 18.70312 C 72.9201 % 13.75 C
1013 23-05-2016 00:00:00 14.01632 C 83.2743 % 11.23 C
1014 24-05-2016 00:00:00 10.97431 C 91.3264 % 9.62 C
1015 25-05-2016 00:00:00 12.7125 C 87.5069 % 10.69 C
1016 26-05-2016 00:00:00 14.89826 C 81.0938 % 11.69 C
1017 27-05-2016 00:00:00 16.77849 C 90.6534 % 15.24 C
1018 28-05-2016 00:00:00 18.08383 C 88.8922 % 16.22 C
1019 29-05-2016 00:00:00 17.36528 C 89.6007 % 15.64 C
1020 30-05-2016 00:00:00 17.49722 C 93.2639 % 16.4 C
1021 31-05-2016 00:00:00 16.51458 C 87.4861 % 14.43 C
1022 01-06-2016 00:00:00 15.69931 C 94.7153 % 14.85 C
1023 02-06-2016 00:00:00 17.51979 C 92.0035 % 16.21 C
1024 03-06-2016 00:00:00 16.76875 C 94.6806 % 15.91 C
1025 04-06-2016 00:00:00 17.85104 C 90.8472 % 16.34 C
Sensor: Nr:Datum:Temp:Feuchte:Taupunkt:
Aussen-T/F 1026 05-06-2016 00:00:00 19.18611 C 89.0486 % 17.34 C
1027 06-06-2016 00:00:00 19.18785 C 86.9896 % 16.97 C
1028 07-06-2016 00:00:00 19.88403 C 82.1597 % 16.75 C
1029 08-06-2016 00:00:00 19.56354 C 77.2500 % 15.47 C
1030 09-06-2016 00:00:00 17.3191 C 71.5556 % 12.13 C
1031 10-06-2016 00:00:00 16.15521 C 71.4444 % 10.99 C
1032 11-06-2016 00:00:00 17.56701 C 74.5035 % 12.99 C
1033 12-06-2016 00:00:00 17.18299 C 86.9931 % 15 C
1034 13-06-2016 00:00:00 15.94479 C 94.8472 % 15.12 C
1035 14-06-2016 00:00:00 16.36597 C 87.8507 % 14.35 C
1036 15-06-2016 00:00:00 15.42431 C 86.9340 % 13.26 C
1037 16-06-2016 00:00:00 13.77292 C 93.5903 % 12.76 C
1038 17-06-2016 00:00:00 14.68889 C 90.7882 % 13.2 C
1039 18-06-2016 00:00:00 14.84861 C 87.4549 % 12.79 C
1040 19-06-2016 00:00:00 15.40278 C 75.9653 % 11.19 C
1041 20-06-2016 00:00:00 14.61979 C 81.8958 % 11.56 C
1042 21-06-2016 00:00:00 18.21736 C 88.4757 % 16.28 C
1043 22-06-2016 00:00:00 20.84792 C 87.8333 % 18.76 C
1044 23-06-2016 00:00:00 23.76528 C 81.5243 % 20.41 C
1045 24-06-2016 00:00:00 22.11979 C 90.4826 % 20.49 C
1046 25-06-2016 00:00:00 16.85451 C 95.9306 % 16.2 C
1047 26-06-2016 00:00:00 15.41562 C 85.3854 % 12.98 C
1048 27-06-2016 00:00:00 15.91562 C 86.7743 % 13.72 C
1049 28-06-2016 00:00:00 18.26597 C 84.3646 % 15.58 C
1050 29-06-2016 00:00:00 19.04444 C 74.5521 % 14.42 C
Sensor: Nr:Datum:Temp:Feuchte:Taupunkt:
Aussen-T/F 1051 30-06-2016 00:00:00 18.7566 C 80.8264 % 15.4 C
1052 01-07-2016 00:00:00 19.88194 C 81.0556 % 16.54 C
1053 02-07-2016 00:00:00 16.90868 C 78.6840 % 13.18 C
1054 03-07-2016 00:00:00 15.21559 C 83.5437 % 12.45 C
1055 04-07-2016 00:00:00 17.43333 C 82.9201 % 14.5 C
1056 05-07-2016 00:00:00 19.40903 C 78.1979 % 15.51 C
1057 06-07-2016 00:00:00 16.61042 C 74.0104 % 11.96 C
1058 07-07-2016 00:00:00 17.08576 C 77.8785 % 13.2 C
1059 08-07-2016 00:00:00 18.87222 C 80.7292 % 15.49 C
1060 09-07-2016 00:00:00 21.08889 C 76.2778 % 16.75 C
1061 10-07-2016 00:00:00 21.92535 C 79.2431 % 18.17 C
1062 11-07-2016 00:00:00 21.61701 C 73.7326 % 16.73 C
1063 12-07-2016 00:00:00 19.06354 C 74.7049 % 14.47 C
1064 13-07-2016 00:00:00 14.71319 C 91.3750 % 13.32 C
1065 14-07-2016 00:00:00 14.94583 C 79.4063 % 11.42 C
1066 15-07-2016 00:00:00 16.08229 C 74.0417 % 11.46 C
1067 16-07-2016 00:00:00 16.98542 C 83.0451 % 14.09 C
1068 17-07-2016 00:00:00 21.34757 C 80.4132 % 17.84 C
1069 18-07-2016 00:00:00 21.85069 C 75.3924 % 17.3 C
1070 19-07-2016 00:00:00 21.61667 C 78.1597 % 17.65 C
1071 20-07-2016 00:00:00 23.34097 C 74.8785 % 18.63 C
1072 21-07-2016 00:00:00 21.23924 C 86.6632 % 18.93 C
1073 22-07-2016 00:00:00 20.96806 C 88.7674 % 19.04 C
1074 23-07-2016 00:00:00 20.3434 C 91.5104 % 18.91 C
1075 24-07-2016 00:00:00 22.0941 C 85.4583 % 19.54 C
Sensor: Nr:Datum:Temp:Feuchte:Taupunkt:
Aussen-T/F 1076 25-07-2016 00:00:00 21.8191 C 81.6910 % 18.55 C
1077 26-07-2016 00:00:00 20.20208 C 86.3333 % 17.85 C
1078 27-07-2016 00:00:00 19.62986 C 81.0313 % 16.29 C
1079 28-07-2016 00:00:00 20.20174 C 82.7986 % 17.18 C
1080 29-07-2016 00:00:00 19.81042 C 85.1319 % 17.24 C
1081 30-07-2016 00:00:00 20.55278 C 78.7326 % 16.73 C
1082 31-07-2016 00:00:00 18.14444 C 80.7535 % 14.79 C
1083 01-08-2016 00:00:00 16.63958 C 78.4757 % 12.88 C
1084 02-08-2016 00:00:00 16.16875 C 92.2986 % 14.92 C
1085 03-08-2016 00:00:00 18.55174 C 94.0938 % 17.58 C
1086 04-08-2016 00:00:00 18.01667 C 94.7188 % 17.16 C
1087 05-08-2016 00:00:00 16.58403 C 88.5486 % 14.69 C
1088 06-08-2016 00:00:00 17.59097 C 86.3924 % 15.29 C
1089 07-08-2016 00:00:00 18.92153 C 81.4306 % 15.67 C
1090 08-08-2016 00:00:00 19.25521 C 77.6701 % 15.26 C
1091 09-08-2016 00:00:00 16.42986 C 72.2361 % 11.42 C
1092 10-08-2016 00:00:00 13.02465 C 80.0243 % 9.66 C
1093 11-08-2016 00:00:00 12.3 C 83.5417 % 9.6 C
1094 12-08-2016 00:00:00 17.31701 C 90.8264 % 15.8 C
1095 13-08-2016 00:00:00 20.62604 C 78.3715 % 16.73 C
1096 14-08-2016 00:00:00 19.08924 C 80.5139 % 15.66 C

Maximal/Minimal-Werte vom 15.08.2013 - 14.08.2016

Sensor Min Max Avg
Temp
(Aussen-T/F)
-7.7 °C
20-01-2016  00:35:00
38.6 °C
04-07-2015  16:30:00
11.34 °C
Feuchte
(Aussen-T/F)
18 %
17-07-2015  15:55:00
100 %
18-08-2013  10:40:00
83.62 %
Taupunkt
(Aussen-T/F)
-6.7 C
19-01-2016  00:00:00
21.29 C
04-07-2015  00:00:00
8.51 C

Die Daten stammen von einer Davis Vantage Pro 2 Wetter-Station und werden unter Linux mit der Software wview2wettercgi und aufbereitet. Alle Angaben erfolgen ohne Gewähr für ihre Vollständigkeit oder Richtigkeit.
Kontakt: Rainer Krienke krienke@uni-koblenz.de . Meine Webseiten an der Uni Koblenz oder privat.
Version: $Revision: 0.78 $